START_TIME,STEP,MOV.,M34,t_acc.,L5,t_acc.,L18,t_acc.,L14,t_acc.
1979-07-03 06:00:25.540 ,0,1,0.,12.0,0.,12.0,0.,12.0,0.,12.0
1979-07-03 06:00:37.540 ,0,1,0.,12.0,0.,12.0,0.,12.0,0.,12.0
1979-07-03 06:00:49.540 ,3,1,0.,12.0,0.,12.0,0.,12.0,0.,12.0
1979-07-03 06:01:01.540 ,3,1,0.,12.0,0.,12.0,0.,12.0,0.,12.0
1979-07-03 06:01:13.540 ,7,1,0.,12.0,0.,12.0,0.,12.0,0.,12.0
1979-07-03 06:01:25.540 ,7,1,0.,12.0,0.,12.0,0.,12.0,0.,12.0
1979-07-03 06:01:37.540 ,4,1,0.,12.0,0.,12.0,0.,12.0,0.,12.0
1979-07-03 06:01:49.540 ,4,1,0.,12.0,0.,12.0,0.,12.0,0.,12.0
1979-07-03 06:02:01.540 ,0,1,0.,12.0,0.,12.0,0.,12.0,0.,12.0
1979-07-03 06:02:13.540 ,0,1,0.,12.0,0.,12.0,0.,12.0,0.,12.0
1979-07-03 06:02:25.540 ,3,1,0.,12.0,0.,12.0,0.,12.0,0.,12.0
1979-07-03 06:02:37.540 ,3,1,0.,12.0,0.,12.0,0.,12.0,0.,12.0
1979-07-03 06:02:49.540 ,7,1,0.,12.0,0.,12.0,0.,12.0,0.,12.0
1979-07-03 06:03:01.540 ,7,1,0.,12.0,0.,12.0,0.,12.0,0.,12.0
1979-07-03 06:03:13.540 ,4,1,0.,12.0,0.,12.0,0.,12.0,0.,12.0
1979-07-03 06:03:25.540 ,4,1,0.,12.0,0.,12.0,0.,12.0,0.,12.0
1979-07-03 06:03:37.540 ,0,1,0.,12.0,0.,12.0,0.,12.0,0.,12.0
1979-07-03 06:03:49.540 ,0,1,0.,12.0,0.,12.0,0.,12.0,0.,12.0
1979-07-03 06:04:01.540 ,3,1,0.,12.0,0.,12.0,0.,12.0,0.,12.0
1979-07-03 06:04:13.540 ,3,1,0.,12.0,0.,12.0,0.,12.0,0.,12.0
1979-07-03 06:04:25.540 ,7,1,0.,12.0,0.,12.0,0.,12.0,0.,12.0
1979-07-03 06:04:37.540 ,7,1,0.,12.0,0.,12.0,0.,12.0,0.,12.0
1979-07-03 06:04:49.540 ,4,1,0.,12.0,0.,12.0,0.,12.0,0.,12.0
1979-07-03 06:05:01.540 ,4,1,0.,12.0,0.,12.0,0.,12.0,0.,12.0
1979-07-03 06:05:13.540 ,0,1,0.,12.0,0.,12.0,0.,12.0,0.,12.0
1979-07-03 06:05:25.540 ,0,1,0.,12.0,0.,12.0,0.,12.0,0.,12.0
1979-07-03 06:05:37.540 ,0,0,0.,12.0,0.,12.0,0.,12.0,0.,12.0
1979-07-03 06:05:49.540 ,0,0,0.,12.0,0.,12.0,0.,12.0,0.,12.0
1979-07-03 06:06:01.540 ,0,0,0.,12.0,0.,12.0,0.,12.0,0.,12.0
1979-07-03 06:06:13.540 ,0,0,0.,12.0,0.,12.0,0.,12.0,0.,12.0
1979-07-03 06:06:25.540 ,5,1,0.,12.0,0.,12.0,0.,12.0,0.,12.0
1979-07-03 06:06:37.540 ,5,1,0.,12.0,0.,12.0,0.,12.0,0.,12.0
1979-07-03 06:06:49.540 ,5,0,0.,12.0,0.,12.0,0.,12.0,0.,12.0
1979-07-03 06:07:01.540 ,5,0,0.,12.0,0.,12.0,0.,12.0,0.,12.0
1979-07-03 06:07:13.540 ,4,1,0.,12.0,0.,12.0,0.,12.0,0.,12.0
1979-07-03 06:07:25.540 ,4,1,0.,12.0,0.,12.0,0.,12.0,0.,12.0
1979-07-03 06:07:37.540 ,4,0,0.,12.0,0.,12.0,0.,12.0,0.,12.0
1979-07-03 06:07:49.540 ,4,0,0.,12.0,0.,12.0,0.,12.0,0.,12.0
1979-07-03 06:08:01.540 ,3,1,0.,12.0,0.,12.0,0.,12.0,0.,12.0
1979-07-03 06:08:13.540 ,3,1,0.,12.0,0.,12.0,0.,12.0,0.,12.0
1979-07-03 06:08:25.540 ,3,0,0.,12.0,0.,12.0,0.,12.0,0.,12.0
1979-07-03 06:08:37.540 ,3,0,0.,12.0,0.,12.0,0.,12.0,0.,12.0
1979-07-03 06:08:49.540 ,2,1,0.,12.0,0.,12.0,0.,12.0,0.,12.0
1979-07-03 06:09:01.540 ,2,1,0.,12.0,0.,12.0,0.,12.0,0.,12.0
1979-07-03 06:09:13.540 ,2,0,0.,12.0,0.,12.0,0.,12.0,0.,12.0
1979-07-03 06:09:25.540 ,2,0,0.,12.0,0.,12.0,0.,12.0,0.,12.0
1979-07-03 06:09:37.540 ,1,1,0.,12.0,0.,12.0,0.,12.0,0.,12.0
1979-07-03 06:09:49.540 ,1,1,0.,12.0,0.,12.0,0.,12.0,0.,12.0
1979-07-03 06:10:01.540 ,1,0,0.,12.0,0.,12.0,0.,12.0,0.,12.0
1979-07-03 06:10:13.540 ,1,0,0.,12.0,0.,12.0,0.,12.0,0.,12.0
1979-07-03 06:10:25.540 ,0,1,0.,12.0,0.,12.0,0.,12.0,1.,12.0
1979-07-03 06:10:37.540 ,0,1,0.,12.0,0.,12.0,0.,12.0,0.,12.0
1979-07-03 06:10:49.540 ,0,0,0.,12.0,0.,12.0,0.,12.0,0.,12.0
1979-07-03 06:11:01.540 ,0,0,0.,12.0,0.,12.0,0.,12.0,0.,12.0
1979-07-03 06:11:13.540 ,0,1,0.,12.0,0.,12.0,0.,12.0,0.,12.0
1979-07-03 06:11:25.540 ,0,1,0.,12.0,0.,12.0,0.,12.0,0.,12.0
1979-07-03 06:11:37.540 ,0,0,0.,12.0,0.,12.0,0.,12.0,0.,12.0
1979-07-03 06:11:49.540 ,0,0,0.,12.0,0.,12.0,0.,12.0,0.,12.0
1979-07-03 06:12:01.540 ,1,1,0.,12.0,0.,12.0,0.,12.0,0.,12.0
1979-07-03 06:12:13.540 ,1,1,0.,12.0,0.,12.0,0.,12.0,0.,12.0
1979-07-03 06:12:25.540 ,1,0,0.,12.0,0.,12.0,0.,12.0,0.,12.0
1979-07-03 06:12:37.540 ,1,0,0.,12.0,0.,12.0,0.,12.0,0.,12.0
1979-07-03 06:12:49.540 ,2,1,0.,12.0,0.,12.0,0.,12.0,0.,12.0
1979-07-03 06:13:01.540 ,2,1,0.,12.0,0.,12.0,0.,12.0,0.,12.0
1979-07-03 06:13:13.540 ,2,0,0.,12.0,0.,12.0,0.,12.0,0.,12.0
1979-07-03 06:13:25.540 ,2,0,0.,12.0,0.,12.0,0.,12.0,0.,12.0
1979-07-03 06:13:37.540 ,3,1,1.,12.0,0.,12.0,0.,12.0,0.,12.0
1979-07-03 06:13:49.540 ,3,1,0.,12.0,0.,12.0,0.,12.0,0.,12.0
1979-07-03 06:14:01.540 ,3,0,0.,12.0,0.,12.0,0.,12.0,0.,12.0
1979-07-03 06:14:13.540 ,3,0,0.,12.0,0.,12.0,0.,12.0,0.,12.0
1979-07-03 06:14:25.540 ,4,1,0.,12.0,0.,12.0,0.,12.0,0.,12.0
1979-07-03 06:14:37.540 ,4,1,0.,12.0,0.,12.0,0.,12.0,0.,12.0
1979-07-03 06:14:49.540 ,4,0,0.,12.0,0.,12.0,0.,12.0,0.,12.0
1979-07-03 06:15:01.540 ,4,0,0.,12.0,0.,12.0,0.,12.0,0.,12.0
1979-07-03 06:15:13.540 ,5,1,0.,12.0,0.,12.0,0.,12.0,0.,12.0
1979-07-03 06:15:25.540 ,5,1,0.,12.0,0.,12.0,0.,12.0,0.,12.0
1979-07-03 06:15:37.540 ,5,0,0.,12.0,0.,12.0,0.,12.0,0.,12.0
1979-07-03 06:15:49.540 ,5,0,0.,12.0,0.,12.0,0.,12.0,0.,12.0
1979-07-03 06:16:01.540 ,6,1,0.,12.0,0.,12.0,0.,12.0,0.,12.0
1979-07-03 06:16:13.540 ,6,1,0.,12.0,0.,12.0,0.,12.0,0.,12.0
1979-07-03 06:16:25.540 ,6,0,0.,12.0,0.,12.0,0.,12.0,0.,12.0
1979-07-03 06:16:37.540 ,6,0,0.,12.0,0.,12.0,0.,12.0,0.,12.0
1979-07-03 06:16:49.540 ,7,1,0.,12.0,0.,12.0,0.,12.0,1.,12.0
1979-07-03 06:17:01.540 ,7,1,0.,12.0,0.,12.0,0.,12.0,0.,12.0
1979-07-03 06:17:13.540 ,7,0,0.,12.0,0.,12.0,0.,12.0,0.,12.0
1979-07-03 06:17:25.540 ,7,0,0.,12.0,0.,12.0,0.,12.0,0.,12.0
1979-07-03 06:17:37.540 ,7,1,0.,12.0,0.,12.0,0.,12.0,0.,12.0
1979-07-03 06:17:49.540 ,7,1,0.,12.0,0.,12.0,0.,12.0,0.,12.0
1979-07-03 06:18:01.540 ,7,0,0.,12.0,0.,12.0,0.,12.0,0.,12.0
1979-07-03 06:18:13.540 ,7,0,0.,12.0,0.,12.0,0.,12.0,0.,12.0
1979-07-03 06:18:25.540 ,6,1,0.,12.0,0.,12.0,0.,12.0,0.,12.0
1979-07-03 06:18:37.540 ,6,1,0.,12.0,0.,12.0,0.,12.0,0.,12.0
1979-07-03 06:18:49.540 ,6,0,0.,12.0,0.,12.0,0.,12.0,0.,12.0
1979-07-03 06:19:01.540 ,6,0,0.,12.0,0.,12.0,0.,12.0,0.,12.0
1979-07-03 06:19:13.540 ,5,1,0.,12.0,0.,12.0,0.,12.0,0.,12.0
1979-07-03 06:19:25.540 ,5,1,0.,12.0,0.,12.0,0.,12.0,0.,12.0
1979-07-03 06:19:37.540 ,5,0,0.,12.0,0.,12.0,0.,12.0,0.,12.0
1979-07-03 06:19:49.540 ,5,0,0.,12.0,0.,12.0,0.,12.0,0.,12.0
1979-07-03 06:20:01.540 ,4,1,0.,12.0,0.,12.0,0.,12.0,0.,12.0
1979-07-03 06:20:13.540 ,4,1,0.,12.0,0.,12.0,0.,12.0,0.,12.0
1979-07-03 06:20:25.540 ,4,0,0.,12.0,0.,12.0,0.,12.0,0.,12.0
1979-07-03 06:20:37.540 ,4,0,0.,12.0,0.,12.0,0.,12.0,0.,12.0
1979-07-03 06:20:49.540 ,3,1,0.,12.0,0.,12.0,0.,12.0,0.,12.0
1979-07-03 06:21:01.540 ,3,1,0.,12.0,0.,12.0,0.,12.0,0.,12.0
1979-07-03 06:21:13.540 ,3,0,0.,12.0,0.,12.0,0.,12.0,0.,12.0
1979-07-03 06:21:25.540 ,3,0,0.,12.0,0.,12.0,0.,12.0,0.,12.0
1979-07-03 06:21:37.540 ,2,1,0.,12.0,0.,12.0,0.,12.0,0.,12.0
1979-07-03 06:21:49.540 ,2,1,0.,12.0,0.,12.0,0.,12.0,0.,12.0
1979-07-03 06:22:01.540 ,2,0,0.,12.0,0.,12.0,0.,12.0,0.,12.0
1979-07-03 06:22:13.540 ,2,0,0.,12.0,0.,12.0,0.,12.0,0.,12.0
1979-07-03 06:22:25.540 ,1,1,0.,12.0,0.,12.0,0.,12.0,0.,12.0
1979-07-03 06:22:37.540 ,1,1,0.,12.0,0.,12.0,0.,12.0,0.,12.0
1979-07-03 06:22:49.540 ,1,0,0.,12.0,0.,12.0,0.,12.0,0.,12.0
1979-07-03 06:23:01.540 ,1,0,0.,12.0,0.,12.0,0.,12.0,0.,12.0
1979-07-03 06:23:13.540 ,0,1,0.,12.0,0.,12.0,0.,12.0,0.,12.0
1979-07-03 06:23:25.540 ,0,1,0.,12.0,0.,12.0,0.,12.0,0.,12.0
1979-07-03 06:23:37.540 ,0,0,0.,12.0,0.,12.0,0.,12.0,0.,12.0
1979-07-03 06:23:49.540 ,0,0,0.,12.0,0.,12.0,0.,12.0,0.,12.0
1979-07-03 06:24:01.540 ,0,1,0.,12.0,0.,12.0,0.,12.0,0.,12.0
1979-07-03 06:24:13.540 ,0,1,0.,12.0,0.,12.0,0.,12.0,0.,12.0
1979-07-03 06:24:25.540 ,0,0,0.,12.0,0.,12.0,0.,12.0,0.,12.0
1979-07-03 06:24:37.540 ,0,0,0.,12.0,0.,12.0,0.,12.0,0.,12.0
1979-07-03 06:24:49.540 ,1,1,0.,12.0,0.,12.0,0.,12.0,0.,12.0
1979-07-03 06:25:01.540 ,1,1,0.,12.0,0.,12.0,0.,12.0,0.,12.0
1979-07-03 06:25:13.540 ,1,0,0.,12.0,0.,12.0,0.,12.0,0.,12.0
1979-07-03 06:25:25.540 ,1,0,0.,12.0,0.,12.0,0.,12.0,0.,12.0
1979-07-03 06:25:37.540 ,2,1,0.,12.0,0.,12.0,0.,12.0,0.,12.0
1979-07-03 06:25:49.540 ,2,1,0.,12.0,0.,12.0,0.,12.0,0.,12.0
1979-07-03 06:26:01.540 ,2,0,0.,12.0,0.,12.0,0.,12.0,0.,12.0
1979-07-03 06:26:13.540 ,2,0,0.,12.0,0.,12.0,0.,12.0,0.,12.0
1979-07-03 06:26:25.540 ,3,1,0.,12.0,0.,12.0,0.,12.0,0.,12.0
1979-07-03 06:26:37.540 ,3,1,0.,12.0,0.,12.0,0.,12.0,0.,12.0
1979-07-03 06:26:49.540 ,3,0,0.,12.0,0.,12.0,0.,12.0,0.,12.0
1979-07-03 06:27:01.540 ,3,0,0.,12.0,0.,12.0,0.,12.0,0.,12.0
1979-07-03 06:27:13.540 ,4,1,0.,12.0,0.,12.0,0.,12.0,0.,12.0
1979-07-03 06:27:25.540 ,4,1,0.,12.0,0.,12.0,0.,12.0,0.,12.0
1979-07-03 06:27:37.540 ,4,0,0.,12.0,0.,12.0,0.,12.0,0.,12.0
1979-07-03 06:27:49.540 ,4,0,0.,12.0,0.,12.0,0.,12.0,0.,12.0
1979-07-03 06:28:01.540 ,5,1,0.,12.0,0.,12.0,0.,12.0,0.,12.0
1979-07-03 06:28:13.540 ,5,1,0.,12.0,0.,12.0,0.,12.0,0.,12.0
1979-07-03 06:28:25.540 ,5,0,0.,12.0,0.,12.0,0.,12.0,0.,12.0
1979-07-03 06:28:37.540 ,5,0,0.,12.0,0.,12.0,0.,12.0,0.,12.0
1979-07-03 06:28:49.540 ,6,1,0.,12.0,0.,12.0,0.,12.0,0.,12.0
1979-07-03 06:29:01.540 ,6,1,0.,12.0,0.,12.0,0.,12.0,0.,12.0
1979-07-03 06:29:13.540 ,6,0,0.,12.0,0.,12.0,0.,12.0,0.,12.0
1979-07-03 06:29:25.540 ,6,0,0.,12.0,0.,12.0,0.,12.0,0.,12.0
1979-07-03 06:29:37.540 ,7,1,0.,12.0,0.,12.0,0.,12.0,0.,12.0
1979-07-03 06:29:49.540 ,7,1,0.,12.0,0.,12.0,0.,12.0,0.,12.0
1979-07-03 06:30:01.540 ,7,0,0.,12.0,0.,12.0,0.,12.0,0.,12.0
1979-07-03 06:30:13.540 ,7,0,0.,12.0,0.,12.0,0.,12.0,0.,12.0
1979-07-03 06:30:25.530 ,7,1,0.,12.0,0.,12.0,0.,12.0,0.,12.0
1979-07-03 06:30:37.530 ,7,1,0.,12.0,0.,12.0,0.,12.0,0.,12.0
1979-07-03 06:30:49.530 ,7,0,0.,12.0,0.,12.0,0.,12.0,0.,12.0
1979-07-03 06:31:01.530 ,7,0,0.,12.0,0.,12.0,0.,12.0,0.,12.0
1979-07-03 06:31:13.530 ,6,1,0.,12.0,0.,12.0,0.,12.0,0.,12.0
1979-07-03 06:31:25.530 ,6,1,0.,12.0,0.,12.0,0.,12.0,0.,12.0
1979-07-03 06:31:37.530 ,6,0,2.,12.0,0.,12.0,0.,12.0,0.,12.0
1979-07-03 06:31:49.530 ,6,0,0.,12.0,0.,12.0,0.,12.0,0.,12.0
1979-07-03 06:32:01.530 ,5,1,0.,12.0,0.,12.0,0.,12.0,0.,12.0
1979-07-03 06:32:13.530 ,5,1,0.,12.0,0.,12.0,0.,12.0,0.,12.0
1979-07-03 06:32:25.530 ,5,0,0.,12.0,0.,12.0,0.,12.0,0.,12.0
1979-07-03 06:32:37.530 ,5,0,1.,12.0,0.,12.0,0.,12.0,0.,12.0
1979-07-03 06:32:49.530 ,4,1,0.,12.0,0.,12.0,0.,12.0,0.,12.0
1979-07-03 06:33:01.530 ,4,1,0.,12.0,0.,12.0,0.,12.0,0.,12.0
1979-07-03 06:33:13.530 ,4,0,0.,12.0,0.,12.0,0.,12.0,0.,12.0
1979-07-03 06:33:25.530 ,4,0,0.,12.0,0.,12.0,0.,12.0,0.,12.0
1979-07-03 06:33:37.530 ,3,1,0.,12.0,0.,12.0,0.,12.0,0.,12.0
1979-07-03 06:33:49.530 ,3,1,0.,12.0,0.,12.0,0.,12.0,0.,12.0
1979-07-03 06:34:01.530 ,3,0,0.,12.0,0.,12.0,0.,12.0,0.,12.0
1979-07-03 06:34:13.530 ,3,0,0.,12.0,0.,12.0,0.,12.0,0.,12.0
1979-07-03 06:34:25.530 ,2,1,0.,12.0,0.,12.0,0.,12.0,0.,12.0
1979-07-03 06:34:37.530 ,2,1,0.,12.0,0.,12.0,0.,12.0,0.,12.0
1979-07-03 06:34:49.530 ,2,0,0.,12.0,0.,12.0,0.,12.0,0.,12.0
1979-07-03 06:35:01.530 ,2,0,0.,12.0,0.,12.0,0.,12.0,0.,12.0
1979-07-03 06:35:13.530 ,1,1,0.,12.0,0.,12.0,0.,12.0,0.,12.0
1979-07-03 06:35:25.530 ,1,1,0.,12.0,0.,12.0,0.,12.0,0.,12.0
1979-07-03 06:35:37.530 ,1,0,0.,12.0,0.,12.0,0.,12.0,0.,12.0
1979-07-03 06:35:49.530 ,1,0,0.,12.0,0.,12.0,0.,12.0,0.,12.0
1979-07-03 06:36:01.530 ,0,1,0.,12.0,0.,12.0,0.,12.0,1.,12.0
1979-07-03 06:36:13.530 ,0,1,0.,12.0,0.,12.0,0.,12.0,0.,12.0
1979-07-03 06:36:25.530 ,0,0,0.,12.0,0.,12.0,0.,12.0,0.,12.0
1979-07-03 06:36:37.530 ,0,0,0.,12.0,0.,12.0,0.,12.0,0.,12.0
1979-07-03 06:36:49.530 ,0,1,0.,12.0,0.,12.0,0.,12.0,0.,12.0
1979-07-03 06:37:01.530 ,0,1,0.,12.0,0.,12.0,0.,12.0,0.,12.0
1979-07-03 06:37:13.530 ,0,0,0.,12.0,0.,12.0,0.,12.0,0.,12.0
1979-07-03 06:37:25.530 ,0,0,0.,12.0,0.,12.0,0.,12.0,0.,12.0
1979-07-03 06:37:37.530 ,1,1,0.,12.0,0.,12.0,0.,12.0,0.,12.0
1979-07-03 06:37:49.530 ,1,1,0.,12.0,0.,12.0,0.,12.0,0.,12.0
1979-07-03 06:38:01.530 ,1,0,0.,12.0,0.,12.0,0.,12.0,0.,12.0
1979-07-03 06:38:13.530 ,1,0,0.,12.0,0.,12.0,0.,12.0,0.,12.0
1979-07-03 06:38:25.530 ,2,1,0.,12.0,0.,12.0,0.,12.0,0.,12.0
1979-07-03 06:38:37.530 ,2,1,0.,12.0,0.,12.0,0.,12.0,0.,12.0
1979-07-03 06:38:49.530 ,2,0,0.,12.0,0.,12.0,0.,12.0,0.,12.0
1979-07-03 06:39:01.530 ,2,0,0.,12.0,0.,12.0,0.,12.0,0.,12.0
1979-07-03 06:39:13.530 ,3,1,0.,12.0,0.,12.0,0.,12.0,0.,12.0
1979-07-03 06:39:25.530 ,3,1,0.,12.0,0.,12.0,0.,12.0,0.,12.0
1979-07-03 06:39:37.530 ,3,0,0.,12.0,0.,12.0,0.,12.0,0.,12.0
1979-07-03 06:39:49.530 ,3,0,0.,12.0,0.,12.0,0.,12.0,0.,12.0
1979-07-03 06:40:01.530 ,4,1,0.,12.0,0.,12.0,0.,12.0,0.,12.0
1979-07-03 06:40:13.530 ,4,1,0.,12.0,0.,12.0,0.,12.0,0.,12.0
1979-07-03 06:40:25.530 ,4,0,0.,12.0,0.,12.0,0.,12.0,0.,12.0
1979-07-03 06:40:37.530 ,4,0,0.,12.0,0.,12.0,0.,12.0,0.,12.0
1979-07-03 06:40:49.530 ,5,1,0.,12.0,0.,12.0,0.,12.0,0.,12.0
1979-07-03 06:41:01.530 ,5,1,0.,12.0,0.,12.0,0.,12.0,0.,12.0
1979-07-03 06:41:13.530 ,5,0,0.,12.0,0.,12.0,0.,12.0,0.,12.0
1979-07-03 06:41:25.530 ,5,0,0.,12.0,0.,12.0,0.,12.0,0.,12.0
1979-07-03 06:41:37.530 ,6,1,0.,12.0,0.,12.0,0.,12.0,0.,12.0
1979-07-03 06:41:49.530 ,6,1,0.,12.0,0.,12.0,0.,12.0,0.,12.0
1979-07-03 06:42:01.530 ,6,0,0.,12.0,0.,12.0,0.,12.0,0.,12.0
1979-07-03 06:42:13.530 ,6,0,0.,12.0,0.,12.0,0.,12.0,0.,12.0
1979-07-03 06:42:01.530 ,6,0,0.,12.0,0.,12.0,0.,12.0,0.,12.0
1979-07-03 06:42:13.530 ,6,0,0.,12.0,0.,12.0,0.,12.0,0.,12.0
1979-07-03 06:42:25.530 ,7,0,0.,12.0,0.,12.0,0.,12.0,0.,12.0
1979-07-03 06:42:37.530 ,7,0,0.,12.0,0.,12.0,0.,12.0,0.,12.0
1979-07-03 06:42:49.530 ,7,0,0.,12.0,0.,12.0,0.,12.0,0.,12.0
1979-07-03 06:43:01.530 ,7,0,0.,12.0,0.,12.0,0.,12.0,0.,12.0
1979-07-03 06:43:13.530 ,4,1,0.,12.0,0.,12.0,0.,12.0,0.,12.0
1979-07-03 06:43:25.530 ,4,1,0.,12.0,0.,12.0,0.,12.0,0.,12.0
1979-07-03 06:43:37.530 ,0,1,0.,12.0,0.,12.0,0.,12.0,0.,12.0
1979-07-03 06:43:49.530 ,0,1,0.,12.0,0.,12.0,0.,12.0,0.,12.0
1979-07-03 06:44:01.530 ,3,1,0.,12.0,0.,12.0,0.,12.0,0.,12.0
1979-07-03 06:44:13.530 ,3,1,1.,12.0,0.,12.0,0.,12.0,0.,12.0
1979-07-03 06:44:25.530 ,7,1,0.,12.0,0.,12.0,0.,12.0,0.,12.0
1979-07-03 06:44:37.530 ,7,1,0.,12.0,0.,12.0,0.,12.0,0.,12.0
1979-07-03 06:44:49.530 ,4,1,0.,12.0,0.,12.0,0.,12.0,0.,12.0
1979-07-03 06:45:01.530 ,4,1,0.,12.0,0.,12.0,0.,12.0,0.,12.0
1979-07-03 06:45:13.530 ,0,1,0.,12.0,0.,12.0,0.,12.0,0.,12.0
1979-07-03 06:45:25.530 ,0,1,0.,12.0,0.,12.0,0.,12.0,0.,12.0
1979-07-03 06:45:37.530 ,3,1,0.,12.0,0.,12.0,0.,12.0,0.,12.0
1979-07-03 06:45:49.530 ,3,1,0.,12.0,0.,12.0,0.,12.0,0.,12.0
1979-07-03 06:46:01.530 ,7,1,0.,12.0,0.,12.0,0.,12.0,0.,12.0
1979-07-03 06:46:13.530 ,7,1,0.,12.0,0.,12.0,0.,12.0,0.,12.0
1979-07-03 06:46:25.530 ,4,1,0.,12.0,0.,12.0,0.,12.0,0.,12.0
1979-07-03 06:46:37.530 ,4,1,0.,12.0,0.,12.0,0.,12.0,0.,12.0
1979-07-03 06:46:49.530 ,0,1,0.,12.0,0.,12.0,0.,12.0,0.,12.0
1979-07-03 06:47:01.530 ,0,1,0.,12.0,0.,12.0,0.,12.0,0.,12.0
1979-07-03 06:47:13.530 ,3,1,0.,12.0,0.,12.0,0.,12.0,0.,12.0
1979-07-03 06:47:25.530 ,3,1,0.,12.0,0.,12.0,0.,12.0,0.,12.0
1979-07-03 06:47:37.530 ,7,1,0.,12.0,0.,12.0,0.,12.0,0.,12.0
1979-07-03 06:47:49.530 ,7,1,0.,12.0,0.,12.0,0.,12.0,0.,12.0
1979-07-03 06:48:01.530 ,4,1,0.,12.0,0.,12.0,0.,12.0,0.,12.0
1979-07-03 06:48:13.530 ,4,1,0.,12.0,0.,12.0,0.,12.0,0.,12.0
1979-07-03 06:48:25.530 ,0,1,0.,12.0,0.,12.0,0.,12.0,0.,12.0
1979-07-03 06:48:37.530 ,0,1,0.,12.0,0.,12.0,0.,12.0,0.,12.0
1979-07-03 06:48:49.530 ,3,1,0.,12.0,0.,12.0,0.,12.0,0.,12.0
1979-07-03 06:49:01.530 ,3,1,0.,12.0,0.,12.0,0.,12.0,0.,12.0
1979-07-03 06:49:13.530 ,7,1,0.,12.0,0.,12.0,0.,12.0,0.,12.0
1979-07-03 06:49:25.530 ,7,1,0.,12.0,0.,12.0,0.,12.0,0.,12.0
1979-07-03 06:49:37.530 ,4,1,0.,12.0,0.,12.0,0.,12.0,0.,12.0
1979-07-03 06:49:49.530 ,4,1,0.,12.0,0.,12.0,0.,12.0,0.,12.0
1979-07-03 06:50:01.530 ,0,1,0.,12.0,0.,12.0,0.,12.0,0.,12.0
1979-07-03 06:50:13.530 ,0,1,0.,12.0,0.,12.0,0.,12.0,0.,12.0
1979-07-03 06:50:25.530 ,3,1,0.,12.0,0.,12.0,0.,12.0,0.,12.0
1979-07-03 06:50:37.530 ,3,1,0.,12.0,0.,12.0,0.,12.0,0.,12.0
1979-07-03 06:50:49.530 ,7,1,0.,12.0,0.,12.0,0.,12.0,0.,12.0
1979-07-03 06:51:01.530 ,7,1,0.,12.0,0.,12.0,0.,12.0,0.,12.0
1979-07-03 06:51:13.530 ,4,1,0.,12.0,0.,12.0,0.,12.0,0.,12.0
1979-07-03 06:51:25.530 ,4,1,0.,12.0,0.,12.0,0.,12.0,0.,12.0
1979-07-03 06:51:37.530 ,0,1,1.,12.0,0.,12.0,0.,12.0,0.,12.0
1979-07-03 06:51:49.530 ,0,1,0.,12.0,0.,12.0,0.,12.0,0.,12.0
1979-07-03 06:52:01.530 ,3,1,0.,12.0,0.,12.0,0.,12.0,0.,12.0
1979-07-03 06:52:13.530 ,3,1,0.,12.0,0.,12.0,0.,12.0,0.,12.0
1979-07-03 06:52:25.530 ,7,1,0.,12.0,0.,12.0,0.,12.0,0.,12.0
1979-07-03 06:52:37.530 ,7,1,0.,12.0,0.,12.0,0.,12.0,0.,12.0
1979-07-03 06:52:49.530 ,4,1,0.,12.0,0.,12.0,0.,12.0,0.,12.0
1979-07-03 06:53:01.530 ,4,1,0.,12.0,0.,12.0,0.,12.0,0.,12.0
1979-07-03 06:53:13.530 ,0,1,0.,12.0,0.,12.0,0.,12.0,0.,12.0
1979-07-03 06:53:25.530 ,0,1,0.,12.0,0.,12.0,0.,12.0,0.,12.0
1979-07-03 06:53:37.530 ,0,0,0.,12.0,0.,12.0,0.,12.0,0.,12.0
1979-07-03 06:53:49.530 ,0,0,0.,12.0,0.,12.0,0.,12.0,0.,12.0
1979-07-03 06:54:01.530 ,0,0,0.,12.0,0.,12.0,0.,12.0,0.,12.0
1979-07-03 06:54:13.530 ,0,0,0.,12.0,0.,12.0,0.,12.0,0.,12.0
1979-07-03 06:54:25.530 ,5,1,0.,12.0,0.,12.0,0.,12.0,0.,12.0
1979-07-03 06:54:37.530 ,5,1,0.,12.0,0.,12.0,0.,12.0,0.,12.0
1979-07-03 06:54:49.530 ,5,0,0.,12.0,0.,12.0,0.,12.0,0.,12.0
1979-07-03 06:55:01.530 ,5,0,0.,12.0,0.,12.0,0.,12.0,0.,12.0
1979-07-03 06:55:13.530 ,4,1,0.,12.0,0.,12.0,0.,12.0,0.,12.0
1979-07-03 06:55:25.530 ,4,1,0.,12.0,0.,12.0,0.,12.0,1.,12.0
1979-07-03 06:55:37.530 ,4,0,0.,12.0,0.,12.0,0.,12.0,0.,12.0
1979-07-03 06:55:49.530 ,4,0,0.,12.0,0.,12.0,0.,12.0,0.,12.0
1979-07-03 06:56:01.530 ,3,1,0.,12.0,0.,12.0,0.,12.0,0.,12.0
1979-07-03 06:56:13.530 ,3,1,0.,12.0,0.,12.0,0.,12.0,0.,12.0
1979-07-03 06:56:25.530 ,3,0,0.,12.0,0.,12.0,0.,12.0,0.,12.0
1979-07-03 06:56:37.530 ,3,0,0.,12.0,0.,12.0,0.,12.0,0.,12.0
1979-07-03 06:56:49.530 ,2,1,0.,12.0,0.,12.0,0.,12.0,0.,12.0
1979-07-03 06:57:01.530 ,2,1,0.,12.0,0.,12.0,0.,12.0,0.,12.0
1979-07-03 06:57:13.530 ,2,0,0.,12.0,0.,12.0,0.,12.0,0.,12.0
1979-07-03 06:57:25.530 ,2,0,0.,12.0,0.,12.0,0.,12.0,0.,12.0
1979-07-03 06:57:37.530 ,1,1,0.,12.0,0.,12.0,0.,12.0,0.,12.0
1979-07-03 06:57:49.530 ,1,1,0.,12.0,0.,12.0,0.,12.0,0.,12.0
1979-07-03 06:58:01.530 ,1,0,0.,12.0,0.,12.0,0.,12.0,0.,12.0
1979-07-03 06:58:13.530 ,1,0,0.,12.0,0.,12.0,0.,12.0,0.,12.0
1979-07-03 06:58:25.530 ,0,1,0.,12.0,0.,12.0,0.,12.0,0.,12.0
1979-07-03 06:58:37.530 ,0,1,0.,12.0,0.,12.0,0.,12.0,0.,12.0
1979-07-03 06:58:49.530 ,0,0,0.,12.0,0.,12.0,0.,12.0,0.,12.0
1979-07-03 06:59:01.530 ,0,0,0.,12.0,0.,12.0,0.,12.0,0.,12.0
1979-07-03 06:59:13.530 ,0,1,0.,12.0,0.,12.0,0.,12.0,0.,12.0
1979-07-03 06:59:25.530 ,0,1,0.,12.0,0.,12.0,0.,12.0,0.,12.0
1979-07-03 06:59:37.530 ,0,0,0.,12.0,0.,12.0,0.,12.0,0.,12.0
1979-07-03 06:59:49.530 ,0,0,0.,12.0,0.,12.0,0.,12.0,0.,12.0
1979-07-03 07:00:01.530 ,1,1,0.,12.0,0.,12.0,0.,12.0,0.,12.0
1979-07-03 07:00:13.530 ,1,1,0.,12.0,0.,12.0,0.,12.0,0.,12.0
1979-07-03 07:00:25.530 ,1,0,0.,12.0,0.,12.0,0.,12.0,0.,12.0
1979-07-03 07:00:37.530 ,1,0,0.,12.0,0.,12.0,0.,12.0,0.,12.0
1979-07-03 07:00:49.530 ,2,1,0.,12.0,0.,12.0,0.,12.0,0.,12.0
1979-07-03 07:01:01.530 ,2,1,0.,12.0,0.,12.0,0.,12.0,0.,12.0
1979-07-03 07:01:13.530 ,2,0,0.,12.0,0.,12.0,0.,12.0,0.,12.0
1979-07-03 07:01:25.530 ,2,0,0.,12.0,0.,12.0,0.,12.0,0.,12.0
1979-07-03 07:01:37.530 ,3,1,0.,12.0,0.,12.0,0.,12.0,0.,12.0
1979-07-03 07:01:49.530 ,3,1,0.,12.0,0.,12.0,0.,12.0,0.,12.0
1979-07-03 07:02:01.530 ,3,0,0.,12.0,0.,12.0,0.,12.0,0.,12.0
1979-07-03 07:02:13.530 ,3,0,0.,12.0,0.,12.0,0.,12.0,0.,12.0
1979-07-03 07:02:25.530 ,4,1,0.,12.0,0.,12.0,0.,12.0,0.,12.0
1979-07-03 07:02:37.530 ,4,1,0.,12.0,0.,12.0,0.,12.0,0.,12.0
1979-07-03 07:02:49.530 ,4,0,0.,12.0,0.,12.0,0.,12.0,0.,12.0
1979-07-03 07:03:01.530 ,4,0,0.,12.0,0.,12.0,0.,12.0,0.,12.0
1979-07-03 07:03:13.530 ,5,1,0.,12.0,0.,12.0,0.,12.0,0.,12.0
1979-07-03 07:03:25.530 ,5,1,0.,12.0,0.,12.0,0.,12.0,0.,12.0
1979-07-03 07:03:37.530 ,5,0,0.,12.0,0.,12.0,0.,12.0,0.,12.0
1979-07-03 07:03:49.530 ,5,0,0.,12.0,0.,12.0,0.,12.0,0.,12.0
1979-07-03 07:04:01.530 ,6,1,0.,12.0,0.,12.0,0.,12.0,0.,12.0
1979-07-03 07:04:13.530 ,6,1,0.,12.0,0.,12.0,0.,12.0,0.,12.0
1979-07-03 07:04:25.530 ,6,0,0.,12.0,0.,12.0,0.,12.0,0.,12.0
1979-07-03 07:04:37.530 ,6,0,0.,12.0,0.,12.0,0.,12.0,0.,12.0
1979-07-03 07:04:49.530 ,7,1,0.,12.0,0.,12.0,0.,12.0,0.,12.0
1979-07-03 07:05:01.530 ,7,1,0.,12.0,0.,12.0,0.,12.0,0.,12.0
1979-07-03 07:05:13.530 ,7,0,0.,12.0,0.,12.0,0.,12.0,0.,12.0
1979-07-03 07:05:25.530 ,7,0,0.,12.0,0.,12.0,0.,12.0,0.,12.0
1979-07-03 07:05:37.530 ,7,1,0.,12.0,0.,12.0,0.,12.0,0.,12.0
1979-07-03 07:05:49.530 ,7,1,0.,12.0,0.,12.0,0.,12.0,0.,12.0
1979-07-03 07:06:01.530 ,7,0,0.,12.0,0.,12.0,0.,12.0,0.,12.0
1979-07-03 07:06:13.530 ,7,0,0.,12.0,0.,12.0,0.,12.0,0.,12.0
1979-07-03 07:06:25.530 ,6,1,0.,12.0,0.,12.0,0.,12.0,0.,12.0
1979-07-03 07:06:37.530 ,6,1,0.,12.0,0.,12.0,0.,12.0,0.,12.0
1979-07-03 07:06:49.530 ,6,0,0.,12.0,0.,12.0,0.,12.0,0.,12.0
1979-07-03 07:07:01.530 ,6,0,0.,12.0,0.,12.0,0.,12.0,0.,12.0
1979-07-03 07:07:13.530 ,5,1,0.,12.0,0.,12.0,0.,12.0,0.,12.0
1979-07-03 07:07:25.530 ,5,1,0.,12.0,0.,12.0,0.,12.0,0.,12.0
1979-07-03 07:07:37.530 ,5,0,0.,12.0,0.,12.0,0.,12.0,0.,12.0
1979-07-03 07:07:49.530 ,5,0,0.,12.0,0.,12.0,0.,12.0,0.,12.0
1979-07-03 07:08:01.530 ,4,1,0.,12.0,0.,12.0,0.,12.0,0.,12.0
1979-07-03 07:08:13.530 ,4,1,0.,12.0,0.,12.0,0.,12.0,0.,12.0
1979-07-03 07:08:25.530 ,4,0,0.,12.0,0.,12.0,0.,12.0,0.,12.0
1979-07-03 07:08:37.530 ,4,0,0.,12.0,0.,12.0,0.,12.0,0.,12.0
1979-07-03 07:08:49.530 ,3,1,0.,12.0,0.,12.0,0.,12.0,0.,12.0
1979-07-03 07:09:01.530 ,3,1,0.,12.0,0.,12.0,0.,12.0,0.,12.0
1979-07-03 07:09:13.530 ,3,0,0.,12.0,0.,12.0,0.,12.0,0.,12.0
1979-07-03 07:09:25.530 ,3,0,0.,12.0,0.,12.0,0.,12.0,0.,12.0
1979-07-03 07:09:37.530 ,2,1,0.,12.0,0.,12.0,0.,12.0,0.,12.0
1979-07-03 07:09:49.530 ,2,1,0.,12.0,0.,12.0,0.,12.0,0.,12.0
1979-07-03 07:10:01.530 ,2,0,0.,12.0,0.,12.0,0.,12.0,0.,12.0
1979-07-03 07:10:13.530 ,2,0,0.,12.0,0.,12.0,0.,12.0,0.,12.0
1979-07-03 07:10:25.530 ,1,1,0.,12.0,0.,12.0,0.,12.0,0.,12.0
1979-07-03 07:10:37.530 ,1,1,0.,12.0,0.,12.0,0.,12.0,0.,12.0
1979-07-03 07:10:49.530 ,1,0,0.,12.0,0.,12.0,0.,12.0,0.,12.0
1979-07-03 07:11:01.530 ,1,0,0.,12.0,0.,12.0,0.,12.0,0.,12.0
1979-07-03 07:11:13.530 ,0,1,0.,12.0,0.,12.0,0.,12.0,0.,12.0
1979-07-03 07:11:25.530 ,0,1,0.,12.0,0.,12.0,0.,12.0,0.,12.0
1979-07-03 07:11:37.530 ,0,0,0.,12.0,0.,12.0,0.,12.0,0.,12.0
1979-07-03 07:11:49.530 ,0,0,0.,12.0,0.,12.0,0.,12.0,0.,12.0
1979-07-03 07:12:01.530 ,0,1,0.,12.0,0.,12.0,0.,12.0,0.,12.0
1979-07-03 07:12:13.530 ,0,1,0.,12.0,0.,12.0,0.,12.0,0.,12.0
1979-07-03 07:12:25.530 ,0,0,0.,12.0,0.,12.0,0.,12.0,0.,12.0
1979-07-03 07:12:37.530 ,0,0,0.,12.0,0.,12.0,0.,12.0,0.,12.0
1979-07-03 07:12:49.530 ,1,1,0.,12.0,0.,12.0,0.,12.0,0.,12.0
1979-07-03 07:13:01.530 ,1,1,0.,12.0,0.,12.0,0.,12.0,0.,12.0
1979-07-03 07:13:13.530 ,1,0,0.,12.0,0.,12.0,0.,12.0,0.,12.0
1979-07-03 07:13:25.530 ,1,0,0.,12.0,0.,12.0,0.,12.0,0.,12.0
1979-07-03 07:13:37.530 ,2,1,0.,12.0,0.,12.0,0.,12.0,0.,12.0
1979-07-03 07:13:49.530 ,2,1,0.,12.0,0.,12.0,0.,12.0,0.,12.0
1979-07-03 07:14:01.530 ,2,0,0.,12.0,0.,12.0,0.,12.0,0.,12.0
1979-07-03 07:14:13.530 ,2,0,0.,12.0,0.,12.0,0.,12.0,0.,12.0
1979-07-03 07:14:25.530 ,3,1,0.,12.0,0.,12.0,0.,12.0,0.,12.0
1979-07-03 07:14:37.530 ,3,1,0.,12.0,0.,12.0,0.,12.0,0.,12.0
1979-07-03 07:14:49.530 ,3,0,0.,12.0,0.,12.0,0.,12.0,0.,12.0
1979-07-03 07:15:01.530 ,3,0,0.,12.0,0.,12.0,0.,12.0,0.,12.0
1979-07-03 07:15:13.530 ,4,1,0.,12.0,0.,12.0,0.,12.0,0.,12.0
1979-07-03 07:15:25.530 ,4,1,0.,12.0,0.,12.0,0.,12.0,0.,12.0
1979-07-03 07:15:37.530 ,4,0,0.,12.0,0.,12.0,0.,12.0,0.,12.0
1979-07-03 07:15:49.530 ,4,0,0.,12.0,0.,12.0,0.,12.0,0.,12.0
1979-07-03 07:16:01.530 ,5,1,0.,12.0,0.,12.0,0.,12.0,0.,12.0
1979-07-03 07:16:13.530 ,5,1,0.,12.0,0.,12.0,0.,12.0,0.,12.0
1979-07-03 07:16:25.530 ,5,0,0.,12.0,0.,12.0,0.,12.0,0.,12.0
1979-07-03 07:16:37.530 ,5,0,0.,12.0,0.,12.0,0.,12.0,0.,12.0
1979-07-03 07:16:49.530 ,6,1,0.,12.0,0.,12.0,0.,12.0,0.,12.0
1979-07-03 07:17:01.530 ,6,1,0.,12.0,0.,12.0,0.,12.0,0.,12.0